Flag for United Kingdom Weather past 2 weeks in Southend-on-Sea, England, United Kingdom

Now
54 °F

Passing clouds.


Feels Like: 52 °F
Forecast: 41 / 58 °F
Wind: 6 mph from North

Location: Southend Airport-On-Sea

Current Time: Apr 19, 2015 at 5:28:16 PM

Latest Report: Apr 19, 2015 at 4:50 PM


Visibility: N/A

Pressure: 30.18 "Hg

Humidity: 58%

Dew point: 39 °F

Location of Southend-on-SeaLocation

Historic Weather in Southend-on-Sea — Graph

°F

Southend-on-Sea temperature yesterday

Maximum temperature yesterday: 55 °F (at 3:50 PM)
Minimum temperature yesterday: 39 °F (at 5:20 AM)
Average temperature yesterday: 47 °F

Past Weeks' High & Low Weather Summary

 TemperatureHumidityPressure
High77 °F (Apr 15, 4:20 PM)94% (Apr 9, 11:50 AM)30.66 "Hg (Apr 9, 11:50 AM)
Low30 °F (Apr 7, 5:50 AM)22% (Apr 15, 4:50 PM)29.89 "Hg (Apr 11, 2:50 AM)
Average50 °F71%30.28 "Hg
* Reported Apr 4 4:20 PM — Apr 19 4:20 PM, Southend-on-Sea, Weather by CustomWeather, © 2015

Note: Actual official high and low records may vary slightly from our data, if they occured in-between our weather recording intervals... More about our weather records

Advertising

Southend-on-Sea weather history for previous 24 hours

 ConditionsComfort  
Time TempWeatherWind HumidityBarometerVisibility
4:20 PM
Sun, Apr 19
52 °FPassing clouds.3 mph58%30.18 "HgN/A
3:50 PM50 °FPassing clouds.5 mph62%30.21 "HgN/A
3:20 PM50 °FScattered clouds.3 mph67%30.21 "HgN/A
2:50 PM50 °FPartly sunny.6 mph67%30.21 "HgN/A
2:20 PM50 °FPartly sunny.9 mph58%30.21 "HgN/A
1:50 PM50 °FBroken clouds.3 mph58%30.21 "HgN/A
1:20 PM50 °FBroken clouds.7 mph54%30.21 "HgN/A
12:50 PM52 °FPartly sunny.6 mph54%30.21 "HgN/A
12:20 PM50 °FPartly sunny.7 mph54%30.21 "HgN/A
11:50 AM48 °FPartly sunny.7 mph62%30.24 "HgN/A
11:20 AM48 °FPartly sunny.6 mph66%30.24 "HgN/A
10:50 AM48 °FPartly sunny.6 mph62%30.24 "HgN/A
10:20 AM46 °FPartly sunny.7 mph66%30.24 "HgN/A
9:50 AM46 °FPartly sunny.9 mph57%30.24 "HgN/A
9:20 AM45 °FPartly sunny.7 mph76%30.24 "HgN/A
8:50 AM45 °FPartly sunny.7 mph71%30.27 "HgN/A
8:20 AM43 °FPartly sunny.6 mph76%30.27 "HgN/A
7:50 AM41 °FPartly sunny.6 mph81%30.27 "HgN/A
7:20 AM41 °FPartly sunny.7 mph81%30.27 "HgN/A
6:50 AM39 °FPassing clouds.6 mph81%30.27 "HgN/A
6:20 AM39 °FPassing clouds.6 mph81%30.27 "HgN/A
5:50 AM39 °FPassing clouds.7 mph81%30.27 "HgN/A
5:20 AM37 °FPassing clouds.6 mph87%30.27 "HgN/A
4:20 AM37 °FPassing clouds.8 mph81%30.30 "HgN/A
2:50 AM39 °FPassing clouds.7 mph81%30.30 "HgN/A
1:50 AM41 °FClear.7 mph81%30.33 "Hg10 mi
1:20 AM41 °FClear.7 mph87%30.33 "Hg10 mi
11:50 PM
Sat, Apr 18
41 °FPassing clouds.8 mph87%30.33 "HgN/A
10:50 PM41 °FClear.8 mph87%30.36 "Hg10 mi
10:20 PM43 °FClear.9 mph81%30.33 "Hg10 mi
9:20 PM45 °FClear.10 mph76%30.36 "Hg10 mi
8:50 PM45 °FSunny.10 mph81%30.33 "Hg10 mi
8:20 PM45 °FSunny.12 mph76%30.33 "Hg10 mi
7:50 PM46 °FSunny.12 mph66%30.33 "Hg10 mi
7:20 PM48 °FSunny.12 mph66%30.33 "Hg10 mi
6:50 PM50 °FSunny.15 mph67%30.33 "Hg10 mi
6:20 PM50 °FSunny.16 mph67%30.33 "Hg10 mi
5:50 PM52 °FSunny.15 mph50%30.33 "Hg10 mi
5:20 PM52 °FSunny.16 mph54%30.33 "Hg10 mi
Weather by CustomWeather, © 2015

See weather overviewHow to use our weather pages